This is the latest recevied weather packets stored in our database for station/object W4JCW. If no packets are shown the sender has not sent any weather packets the latest 10 day(s).
| Time | Temp. | Humidity | Pressure | Rain* | Wind** | Luminosity | Snow |
|---|---|---|---|---|---|---|---|
| 1778030385 | 21.67° C | 57% | 1013.4 hPa | 0 mm | - | 0 W/m² | - |
| 1778030082 | 22.22° C | 57% | 1013.4 hPa | 0 mm | - | 0 W/m² | - |
| 1778029779 | 22.22° C | 56% | 1013 hPa | 0 mm | - | 0 W/m² | - |
| 1778029478 | 22.22° C | 56% | 1013.1 hPa | 0 mm | - | 0 W/m² | - |
| 1778029174 | 22.22° C | 55% | 1013 hPa | 0 mm | - | 0 W/m² | - |
| 1778028872 | 22.78° C | 55% | 1012.8 hPa | 0 mm | - | 0 W/m² | - |
| 1778028566 | 22.78° C | 55% | 1012.8 hPa | 0 mm | - | 0 W/m² | - |
| 1778028265 | 22.78° C | 54% | 1012.7 hPa | 0 mm | - | 0 W/m² | - |
| 1778027960 | 22.78° C | 54% | 1012.7 hPa | 0 mm | - | 0 W/m² | - |
| 1778027657 | 23.33° C | 53% | 1012.5 hPa | 0 mm | - | 0 W/m² | - |
| 1778027354 | 23.33° C | 53% | 1012.6 hPa | 0 mm | - | 0 W/m² | - |
| 1778027050 | 23.33° C | 52% | 1012.6 hPa | 0 mm | - | 0 W/m² | - |
| 1778026745 | 23.33° C | 52% | 1012.6 hPa | 0 mm | - | 1 W/m² | - |
| 1778026443 | 23.89° C | 51% | 1012.5 hPa | 0 mm | - | 2 W/m² | - |
| 1778026140 | 23.89° C | 50% | 1012.5 hPa | 0 mm | - | 3 W/m² | - |
| 1778025838 | 23.89° C | 49% | 1012.3 hPa | 0 mm | - | 5 W/m² | - |
| 1778025534 | 23.89° C | 48% | 1012.4 hPa | 0 mm | - | 8 W/m² | - |
| 1778025231 | 24.44° C | 47% | 1012.3 hPa | 0 mm | - | 11 W/m² | - |
| 1778024928 | 24.44° C | 46% | 1012.4 hPa | 0 mm | - | 14 W/m² | - |
| 1778024626 | 24.44° C | 46% | 1012.3 hPa | 0 mm | - | 18 W/m² | - |
| 1778024323 | 24.44° C | 45% | 1012.6 hPa | 0 mm | - | 21 W/m² | - |
| 1778024021 | 25° C | 45% | 1012.3 hPa | 0 mm | - | 24 W/m² | - |
| 1778023718 | 25° C | 44% | 1012.4 hPa | 0 mm | - | 27 W/m² | - |
| 1778023416 | 25° C | 44% | 1012.6 hPa | 0 mm | - | 30 W/m² | - |
| 1778023112 | 25° C | 43% | 1012.4 hPa | 0 mm | - | 35 W/m² | - |
* Rain latest hour (hover to see other rain measurements)
** Current wind speed in m/s (hover to see current wind gust speed)